Starlink 37060

operational
NORAD ID: 68150 Int'l Des: 2026-049 Owner: SPXS Country: US Constellation: starlink
LEOCIRCULARRETROGRADE

关于 Starlink 37060

正在加载描述...

实时位置

正在加载3D地球...

即将过境

高度历史

Altitude vs Time

uPlot chart will show altitude changes over time

两行轨道根数

1 68150C 26049J 26072.93520833 .00496650 00000+0 57857-3 0 727
2 68150 97.2822 91.9370 0010060 252.8571 236.5867 16.08178493 13
Epoch: Mar 13, 2026 • Age: 72 hours

当前状态

高度 264.8 km
速度 7.75 km/s
星下点 77.48°N, 141.88°E
发射日期 Mar 13, 2026
运行时间 2 days
类型 internet

技术详情

分类 Payload
质量 575.00 kg
干质量 530.00 kg
总质量 575.00 kg
长度 0.30 m
直径 4.10 m
跨度 29.00 m
形状 Box + pan
制造商 SPXS
平台类型 Starlink V2MO
阶段状态 In Orbit
所有者/国家 SPXS/US

大型星座

Loading constellations...